Location: La Pernelle
(49.6188°N, 1.2999°W)
Time: 08:28:56
(UTC+00:00)

GEOS 3 Rocket - Pass Details

Date: 12 June 2021
Orbit: 780 x 839 km, 115.0° (Epoch: 03 August)

Event Time Altitude Azimuth Distance (km) Brightness Sun altitude
Exits shadow 22:33:49 21° 162° (SSE) 1,786 4.8 -14.4°
Maximum altitude 22:37:17 56° 234° (SW) 992 4.0 -14.6°
Drops below altitude 10° 22:42:33 10° 312° (NW) 2,453 7.1 -14.9°
Sets 22:44:55 0° 317° (NW) 3,385 8.1 -15.0°
